Regional Weather Roundup
Issued by NWS Sioux Falls, SD

Home | Current Version | Previous Version | Graphics & Text | Print | Product List | Glossary On
Versions: 1 2 3 4 5 6 7 8 9 10 11 12 13 14 15 16 17 18 19 20 21 22 23 24 25 26 27 28 29 30 31 32 33 34 35 36 37 38 39 40 41 42 43 44 45 46 47 48 49 50
000
ASUS43 KFSD 201510
RWRFSD

WEATHER ROUNDUP FOR SE SOUTH DAKOTA/SW MINNESOTA/NW IOWA
NATIONAL WEATHER SERVICE SIOUX FALLS SD
900 AM CST MON FEB 20 2017

NOTE: "FAIR" INDICATES FEW OR NO CLOUDS BELOW 12,000 FEET WITH NO
SIGNIFICANT WEATHER AND OR OBSTRUCTIONS TO VISIBILITY.


SDZ038>040-050-052>070-201600-
SOUTHEAST SOUTH DAKOTA

CITY           SKY/WX    TMP DP  RH WIND       PRES   REMARKS
BROOKINGS      CLOUDY    52  51  97 S13       29.66F FOG
CHAMBERLAIN    CLOUDY    48  41  77 NW26G32   29.65R
HURON          CLOUDY    52  52 100 S13G20    29.60S
MADISON        FOG       50  50 100 S12       29.65F VSB 1/4
MITCHELL       CLOUDY    52  51  97 SE10      29.63R FOG
SIOUX FALLS    CLOUDY    55  55 100 S12       29.68F FOG
WINNER         PTSUNNY   49  40  71 NW22G31   29.69R
YANKTON        CLOUDY    54  52  94 SE5       29.66F
$$

MNZ071-072-080-081-089-090-097-098-201600-
SOUTHWEST MINNESOTA

CITY           SKY/WX    TMP DP  RH WIND       PRES   REMARKS
FAIRMONT       LGT RAIN  52  48  87 S15       29.77R FOG
JACKSON        CLOUDY    48  45  87 S13       29.76S
LUVERNE        CLOUDY    50  48  93 S9        29.70F FOG
MARSHALL       LGT RAIN  58  56  93 S17       29.68R
MONTEVIDEO     LGT RAIN  52  52 100 S9        29.71R
PIPESTONE      RAIN      54  48  82 S12       29.68F
REDWOOD FALLS  CLOUDY    50  45  83 SE12      29.72S
TRACY          LGT RAIN  58  56  94 S14       29.70S
WINDOM         CLOUDY    54  50  87 S12       29.73F
WORTHINGTON    LGT RAIN  51  50  96 S14       29.72F FOG
$$

IAZ001>003-012>014-020>022-031-032-NEZ013-014-SDZ071-201600-
NORTHWEST IOWA

CITY           SKY/WX    TMP DP  RH WIND       PRES   REMARKS
CHEROKEE       RAIN      54  54 100 S13       29.74F
DENISON        CLOUDY    57  57 100 S12G18    29.74S FOG
ESTHERVILLE    LGT RAIN  49  49 100 S16       29.76S FOG
LE MARS        CLOUDY    55  55 100 SE14G21   29.71F FOG
SHELDON        HVY RAIN  52  52 100 S17       29.71S VSB 3/4
SIOUX CITY     CLOUDY    57  56  96 S15       29.71F FOG
SPENCER        LGT RAIN  52  52 100 S15       29.75F FOG
STORM LAKE     FOG       52  52 100 S10       29.76S VSB 3/4
$$

ABBREVIATIONS USED IN REMARKS
   TC - TEMPERATURE IN CELSIUS
  WCI - WIND CHILL INDEX
   HX - HEAT INDEX
  VSB - VISIBILITY





USA.gov is the U.S. government's official web portal to all federal, state and local government web resources and services.